2023-001G (55015 NORAD) Tracking and Keplerian Element Data

This shows tracking and keplerian element data for the satellite.

Feedback or suggestion? Click here.




ElementValue
Catalog55015
Name2023-001G
Epoch Orbit169
Epoch Day13.78798552
Epoch Year2023
RAAN75.7356
Inclination97.5068
Eccentricity0.0011612
Argument of Perigee189.0515
Mean Anonmoly171.0508
Mean Motion15.12214324
Decay Rate0.00011788
L11 55015U 23001G 23013.78798552 .00011788 00000+0 68460-3 0 9993
L22 55015 97.5068 75.7356 0011612 189.0515 171.0508 15.12214324 1699



Live tracking and technical data element details for 2023-001G (NORAD 55015). 2023-001G can be tracked NOW for your location showing map with azimuth and elevation plus other details from your city location.







IsCatalogInMostPopularTable: catalog: 55015, numindb: 3
Update: records affected: 1



GetName: 55015 2023-001G

Hit Count: updated at: Tue, 07 Feb 2023 15:56:19 GMT